Simultaneous Nadir Overpasses (SNOs) Predictions

Prediction of SNOs between AQUA and NOAA-19 Satellite Orbit:

Table of predicted SNOs for the next 14.0 days since TLE Epoch: 3/4/2016
Index Date (AQUA) Time (AQUA) Lat,Lon (AQUA) SZA (AQUA ) Date (NOAA-19) Time (NOAA-19) Lat,Lon (NOAA-19) SZA (NOAA-19 ) Distance(km) Time Diff (sec)
1 03/05/2016 05:28:13 80.75, 59.88 88.83 03/05/2016 05:28:00 80.75, 59.84 88.84 0.88 13
2 03/05/2016 06:17:00 -79.45,-120.83 93.39 03/05/2016 06:18:10 -79.77,-117.86 93.38 69.40 70
3 03/07/2016 11:01:57 -80.73, 156.71 92.09 03/07/2016 11:02:02 -80.73, 156.88 92.11 2.97 5
4 03/09/2016 15:46:16 -80.75, 85.44 92.93 03/09/2016 15:45:11 -80.75, 85.53 92.90 1.68 65
5 03/09/2016 16:35:42 80.73,-106.67 87.02 03/09/2016 16:36:15 80.73,-106.74 87.02 1.51 33
6 03/11/2016 21:20:01 80.75,-178.04 86.20 03/11/2016 21:19:23 80.75,-177.93 86.20 2.08 38
7 03/11/2016 22:09:27 -80.74, -10.27 93.84 03/11/2016 22:10:19 -80.73, -10.23 93.87 1.13 52
8 03/14/2016 02:53:45 -80.74, -81.37 94.72 03/14/2016 02:53:27 -80.75, -81.30 94.71 1.28 18
9 03/16/2016 08:27:29 80.74, 15.30 84.38 03/16/2016 08:27:38 80.75, 15.18 84.40 2.45 9
10 03/18/2016 13:11:48 80.78, -56.31 83.59 03/18/2016 13:10:46 80.77, -56.15 83.59 2.89 62




NCC Satellite Simultaneous Nadir Overpasses (SNOs) Prediction Service
